Location: Williams Lake
(52.1170°N, 122.1500°W)
Time: 17:00:44
(UTC-07:00)

Daily predictions for brighter satellites

Satellite Brightness Start Highest point End
(mag) Time Altitude Azimuth Time Altitude Azimuth Time Altitude Azimuth
USA 234 3.5 21:52:13 10° SE 21:58:44 64° SW 22:05:17 10° WNW
Cosmos 2279 Rocket 4.5 21:53:14 10° N 21:59:17 48° ENE 22:05:18 10° SE
Nimbus 7 Rocket 4.5 21:53:24 10° NNE 21:59:26 85° ESE 22:05:22 10° SSW
SPOT 5 3.1 21:55:09 10° S 21:59:28 60° WSW 22:03:46 10° NNW
Cosmos 407 Rocket 4.5 21:55:43 10° SSE 22:00:10 29° E 22:04:36 10° NE
ARGOS 3.3 21:57:02 10° SSE 22:02:25 69° ENE 22:07:51 10° NNW
Cosmos 2369 Rocket 2.4 21:58:24 10° NNW 22:04:06 75° WSW 22:09:43 10° SSE
Lacrosse 5 2.9 22:04:43 10° W 22:09:39 49° N 22:14:35 10° ENE
Terra 2.6 22:06:28 10° SE 22:10:52 39° ENE 22:15:18 10° N
Cosmos 1238 4.4 22:11:23 10° SSW 22:14:25 74° W 22:17:32 10° N
SL-16 R/B 3.8 22:13:26 10° WSW 22:18:46 41° NW 22:24:09 10° NNE
USA 81 4.2 22:16:50 10° N 22:22:09 78° W 22:27:25 10° S
NOAA 11 4.2 22:17:34 10° SSE 22:23:00 88° ENE 22:28:28 10° NNW
CZ-4C R/B 3.4 22:19:47 10° SSE 22:23:57 75° ENE 22:27:56 10° NNW
Cosmos 1758 Rocket 3.8 22:21:48 10° S 22:26:02 50° E 22:30:16 10° NNE
CARTOSAT-1 3.9 22:25:28 11° SSE 22:29:35 54° ENE 22:33:49 10° N
Cosmos 1515 4.1 22:26:31 10° SSW 22:30:22 66° WNW 22:34:14 10° N
YAOGAN 6 3.5 22:27:07 10° S 22:30:45 47° W 22:34:24 10° NNW
Atlas Centaur 2 4.5 22:27:28 10° SSW 22:31:18 14° S 22:34:58 11° SSE
DELTA 2 DEB (DPAF) 4.2 22:27:39 10° SSE 22:32:09 90° SE 22:36:41 10° NNW
ATLAS CENTAUR R/B 4.2 22:31:05 10° W 22:35:27 28° NNW 22:39:46 10° NE
Cosmos 1953 2.8 22:31:42 10° N 22:35:35 47° ENE 22:38:56 13° SSE
Lacrosse 5 rocket 2.5 22:35:56 10° W 22:39:50 47° NNW 22:43:57 10° ENE
Cosmos 1825 Rocket 3.8 22:38:35 10° SSW 22:43:01 72° W 22:47:28 10° N
COSMOS 2406 4.4 22:39:41 12° SSE 22:43:45 25° ESE 22:48:20 10° NE
SeaSat 1 4.2 22:42:38 10° SSW 22:46:43 25° WSW 22:50:48 10° NW
Cosmos 1066 Rocket 4.4 22:42:47 10° SSW 22:48:33 79° WNW 22:54:26 10° NNE
Cosmos 1842 Rocket 4.1 22:46:35 10° N 22:50:48 45° ENE 22:54:12 15° SE
SAR-Lupe-2 3.6 22:48:41 14° SSE 22:51:43 85° WSW 22:55:20 10° NNW
Cosmos 1570 Rocket 4.2 22:46:33 10° NNW 22:51:57 73° ENE 22:56:29 15° SSE
BREEZE-M DEB (TANK) 2.7 22:50:07 10° SW 22:52:11 24° SSE 22:53:04 18° ESE
H-2A R/B 2.0 22:47:47 13° SSE 22:52:20 88° ENE 22:57:30 10° NNW
CZ-4B R/B 3.9 22:47:35 10° N 22:52:37 66° WNW 22:57:43 10° SSW
Cosmos 1190 Rocket 4.0 22:49:46 10° SSW 22:55:05 88° ESE 23:00:28 10° NNE
Cosmos 1346 Rocket 3.1 22:53:51 10° SSW 22:57:45 69° WNW 23:01:43 10° N
SL-8 R/B 4.1 22:58:18 10° W 23:02:56 46° SSW 23:06:53 14° SE
Cosmos 1943 Rocket 2.4 22:59:09 10° NW 23:04:38 63° WSW 23:09:12 15° SSE
COSMOS 2455 3.3 22:59:16 10° SW 23:05:15 67° NW 23:11:17 10° NE
ISS -3.2 23:03:51 10° SW 23:07:01 48° SSE 23:10:12 10° E
Spot 2 4.5 23:03:22 10° NNE 23:08:04 60° ESE 23:12:25 13° S
Cosmos 1842 3.2 23:05:12 13° S 23:08:43 80° E 23:12:38 10° NNE
Cosmos 1943 3.4 23:04:18 10° SW 23:09:58 75° WNW 23:15:43 10° NNE
Cosmos 676 Rocket 4.0 23:06:38 10° SSW 23:11:57 78° ESE 23:17:18 10° NNE
Cosmos 1140 Rocket 4.0 23:08:25 14° S 23:12:31 43° ESE 23:17:29 10° NE
IGS 5A 3.7 23:11:16 16° S 23:14:34 66° WSW 23:18:44 10° NNW
DMSP B5D2-2 4.1 23:10:50 10° NNE 23:16:08 68° ESE 23:20:47 13° S
Cosmos 2084 4.1 23:13:25 10° WNW 23:17:17 42° SW 23:19:58 19° S
Cosmos 1656 Rocket 3.7 23:11:43 10° NNW 23:17:28 88° ENE 23:21:49 18° SSE
Cosmos 1758 3.7 23:18:05 10° NNW 23:22:10 61° W 23:25:15 17° S
Nadezhda 4 Rocket 4.1 23:16:48 14° S 23:22:14 68° E 23:28:32 10° NNE
H-2A R/B 4.4 23:22:34 10° ENE 23:24:29 13° E 23:25:46 12° ESE
Cosmos 1733 3.9 23:22:04 10° N 23:25:49 44° ENE 23:28:06 21° SE
Lacrosse 4 Rocket 1.5 23:21:56 10° SW 23:25:59 76° NW 23:30:09 10° NE
COSMOS 2487 3.9 23:26:25 20° SE 23:27:33 24° ESE 23:30:30 10° NE
SL-27 R/B 2.2 23:27:57 18° SSW 23:30:20 76° ESE 23:33:42 10° NNE
ATLAS 3B R/B 2.9 23:24:29 10° SW 23:32:13 89° SE 23:39:40 10° NE
Cosmos 2221 3.2 23:28:09 10° N 23:32:18 42° ENE 23:34:57 20° SE
Cosmos-2242 4.1 23:31:00 10° NNW 23:35:07 39° W 23:38:43 13° SSW
Cosmos 614 Rocket 4.4 23:35:47 20° S 23:39:09 46° ESE 23:44:08 10° NE
Cosmos 407 Rocket 4.3 23:36:48 10° SW 23:41:56 53° WNW 23:47:02 10° NNE
Cosmos 1818 3.8 23:39:04 10° NW 23:44:35 70° NE 23:49:07 15° SE
CZ-4C R/B 3.5 23:43:55 19° SE 23:45:51 22° ESE 23:50:20 10° ENE
Meteor 2-5 Rocket 4.1 23:42:23 20° SSE 23:46:20 54° E 23:51:56 10° NNE
Cosmos 2369 Rocket 4.4 23:44:13 10° WNW 23:47:09 14° W 23:50:04 10° SW
Terra 3.1 23:44:53 13° SSW 23:48:41 33° W 23:53:01 10° NNW
Lacrosse 5 2.4 23:48:11 10° WNW 23:53:13 60° NNE 23:58:13 10° E
CZ-4B R/B 2.7 23:51:36 20° ESE 23:53:37 36° ENE 23:57:04 10° N
Cosmos 1470 2.8 23:50:01 10° NNW 23:53:55 71° W 23:56:02 25° S
Genesis I 4.4 23:51:08 10° NW 23:54:58 41° NE 23:58:34 11° ESE
Cosmos 2228 Rocket 4.2 23:51:25 10° N 23:55:28 34° ENE 23:58:09 18° SE
